This is the latest recevied weather packets stored in our database for station/object KA3BQE-13. If no packets are shown the sender has not sent any weather packets the latest 10 day(s).
| Time | Temp. | Humidity | Pressure | Rain* | Wind** | Luminosity | Snow |
|---|---|---|---|---|---|---|---|
| 1777995182 | 10.56° C | 79% | 1011.1 hPa | 0 mm | - | 286 W/m² | - |
| 1777994879 | 10.56° C | 78% | 1011 hPa | 0 mm | - | 328 W/m² | - |
| 1777994575 | 10.56° C | 79% | 1011.1 hPa | 0 mm | - | 437 W/m² | - |
| 1777994270 | 11.11° C | 79% | 1011 hPa | 0 mm | - | 408 W/m² | - |
| 1777993968 | 10.56° C | 78% | 1011.2 hPa | 0 mm | - | 381 W/m² | - |
| 1777993664 | 10.56° C | 79% | 1010.9 hPa | 0 mm | - | 366 W/m² | - |
| 1777993362 | 10° C | 80% | 1010.6 hPa | 0 mm | - | 370 W/m² | - |
| 1777993056 | 10° C | 79% | 1010.8 hPa | 0 mm | - | 286 W/m² | - |
| 1777992755 | 10° C | 80% | 1010.5 hPa | 0 mm | - | 393 W/m² | - |
| 1777992452 | 9.44° C | 78% | 1010.8 hPa | 0 mm | - | 379 W/m² | - |
| 1777992151 | 9.44° C | 78% | 1010.8 hPa | 0 mm | - | 311 W/m² | - |
| 1777991847 | 8.89° C | 79% | 1010.7 hPa | 0 mm | - | 246 W/m² | - |
| 1777991545 | 8.89° C | 80% | 1010.7 hPa | 0 mm | - | 223 W/m² | - |
| 1777991241 | 8.89° C | 82% | 1010.6 hPa | 0 mm | - | 156 W/m² | - |
| 1777990938 | 8.33° C | 84% | 1010.8 hPa | 0 mm | - | 177 W/m² | - |
| 1777990636 | 8.33° C | 84% | 1010.7 hPa | 0 mm | - | 102 W/m² | - |
| 1777990333 | 8.33° C | 84% | 1010.8 hPa | 0 mm | - | 82 W/m² | - |
| 1777990029 | 8.33° C | 86% | 1010.7 hPa | 0 mm | - | 93 W/m² | - |
| 1777989726 | 8.33° C | 85% | 1010.9 hPa | 0.51 mm | - | 98 W/m² | - |
| 1777989423 | 8.33° C | 83% | 1010.9 hPa | 0.51 mm | - | 83 W/m² | - |
| 1777989119 | 8.33° C | 82% | 1010.8 hPa | 0 mm | - | 66 W/m² | - |
| 1777988814 | 8.33° C | 82% | 1010.9 hPa | 0.51 mm | - | 58 W/m² | - |
| 1777988512 | 8.33° C | 82% | 1011.1 hPa | 0.51 mm | - | 58 W/m² | - |
| 1777988209 | 8.33° C | 79% | 1011.2 hPa | 0 mm | - | 42 W/m² | - |
| 1777987905 | 8.89° C | 79% | 1011.4 hPa | 0 mm | - | 34 W/m² | - |
* Rain latest hour (hover to see other rain measurements)
** Current wind speed in m/s (hover to see current wind gust speed)